Regional Weather Roundup
Issued by NWS Green Bay, WI

Home | Current Version | Previous Version | Graphics & Text | Print | Product List | Glossary Off
Versions: 1 2 3 4 5 6 7 8 9 10 11 12 13 14 15 16 17 18 19 20 21 22 23 24 25 26 27 28 29 30 31 32 33 34 35 36 37 38 39 40 41 42 43 44 45 46 47 48 49 50

000
ASUS43 KGRB 311259
RWRGRB

NORTH-CENTRAL AND NORTHEAST WISCONSIN REGIONAL WEATHER ROUNDUP
NATIONAL WEATHER SERVICE GREEN BAY WI
700 AM CST SAT JAN 31 2015

WIZ005-009-010>012-018-019-311400-
NORTH CENTRAL WISCONSIN

CITY           SKY/WX    TMP DP  RH WIND       PRES   REMARKS
IRONWOOD       CLOUDY    21  16  79 W9        30.09R
MANITOWISH WTR NOT AVBL
ARBOR VITAE    NOT AVBL
EAGLE RIVER    NOT AVBL
LAND O LAKES   NOT AVBL
RHINELANDER    CLOUDY    18  13  80 W7        30.09R WCI   9
PHILLIPS       NOT AVBL
ANTIGO         NOT AVBL
TOMAHAWK       NOT AVBL
MERRILL        NOT AVBL
$$

WIZ013-073-311400-
NORTHEAST WISCONSIN

CITY           SKY/WX    TMP DP  RH WIND       PRES   REMARKS
IRON MOUNTAIN  CLOUDY    20  13  74 W7        30.09R
MARINETTE      CLOUDY    21  10  63 W3        30.14R
$$

WIZ017-030-035>037-045-311400-
CENTRAL WISCONSIN

CITY           SKY/WX    TMP DP  RH WIND       PRES   REMARKS
MEDFORD        NOT AVBL
WAUSAU         CLOUDY    20  11  68 NW3       30.11R
MOSINEE        CLOUDY    19  14  79 CALM      30.13R
MARSHFIELD     CLOUDY    21  14  74 CALM      30.12R
WISC RAPIDS    CLOUDY    22  13  68 CALM      30.15R
STEVENS POINT  NOT AVBL
WAUPACA        NOT AVBL
SHAWANO        NOT AVBL
CLINTONVILLE   NOT AVBL
$$

WIZ038-039-048-051-311400-
FOX VALLEY

CITY           SKY/WX    TMP DP  RH WIND       PRES   REMARKS
NWS GREEN BAY  CLOUDY    22  16  78 SW7       30.16R
APPLETON       CLOUDY    21  16  79 SW8       30.15R
OSHKOSH        CLOUDY    23  16  74 SW7       30.15S
FOND DU LAC    CLOUDY    22  15  75 SW7       30.17R
$$

WIZ022-050-052-311400-
EAST CENTRAL WISCONSIN

CITY           SKY/WX    TMP DP  RH WIND       PRES   REMARKS
STURGEON BAY   CLOUDY    21  12  68 W8        30.16R
MANITOWOC      NOT AVBL
SHEBOYGAN      CLOUDY    24  16  71 W6        30.16S
$$

LMZ563-521-522-541>543-311400-
LAKESHORE

STATION/POSITION TIME  TEMP    WIND        PRES    VSBY  WAVE
                       AIR SEA DIR/SP/G                  HT/PER
                 (UTC) (F)     (DEG/KT/KT) (MB)    (MI)  (FT/S)
SHEBOYGAN LKSHOR 1200   23     230/  7/  9 1022.9F
KEWAUNEE LKSHORE 1200   23     270/  6/  9 1020.0S
NORTHPORT PIER   1200   21     240/  5/ 13 1020.3S
SISTER BAY LKSHO 1200   21     240/ 11/ 12   N/A
CHAMBERS ISLAND  1200   21     210/  5/  9 1020.7S
MENOMINEE LKSHOR 1200   22     230/  6     1021.2R
$$



USA.gov is the U.S. government's official web portal to all federal, state and local government web resources and services.